[ hide orbit diagram ]
For accurate long-term ephemerides, please instead use our Horizons system.This orbit viewer was implemented using two-body methods, and hence should not be used for determining accurate long-term trajectories (over several years or decades) or planetary encounter circumstances.
Orbital Elements at Epoch 2459200.5 (2020-Dec-17.0) TDB
Reference: JPL 41 (heliocentric ecliptic J2000)
Element | Value | Uncertainty (1-sigma) | Units |
e | .110423560688862 | 3.5797e-08 | |
a | 2.622591273790615 | 1.0682e-08 | au |
q | 2.332995407107117 | 9.553e-08 | au |
i | 4.681228481895097 | 3.5938e-06 | deg |
node | 69.64051447340275 | 4.9699e-05 | deg |
peri | 290.6108793062756 | 5.2473e-05 | deg |
M | 76.2939102354508 | 1.6833e-05 | deg |
tp | 2458871.737921183666 (2020-Jan-23.23792118) | 7.2309e-05 | TDB |
period | 1551.294828232378 4.25 | 9.4782e-06 2.595e-08 | d yr |
n | .232064204333229 | 1.4179e-09 | deg/d |
Q | 2.912187140474113 | 1.1862e-08 | au |
|
| | Orbit Determination Parameters
Additional Information
|
[ show covariance matrix ]
Physical Parameter Table
Parameter |
Symbol |
Value |
Units |
Sigma |
Reference |
Notes |
absolute magnitude |
H |
14.0 |
|
n/a |
MPO350895 |
|
diameter |
diameter |
4.701 |
km |
0.328 |
urn:nasa:pds:neowise_diameters_albedos::2.0[mainbelt] (http://adsabs.harvard.edu/abs/2011ApJ...741...68M) |
|
geometric albedo |
albedo |
0.152 |
|
0.035 |
urn:nasa:pds:neowise_diameters_albedos::2.0[mainbelt] (http://adsabs.harvard.edu/abs/2011ApJ...741...68M) |
|
|
11779 Zernike | Discovered 1977 Oct. 16 by C. J. van Houten and I. van Houten-Groeneveld on Palomar Schmidt plates taken by T. Gehrels. |
Frits Zernike (1888-1966), Nobel Laureate in physics exactly half a century ago, was professor of physics and rector at Groningen University and a former assistant of Jacobus Kapteyn. By inventing the phase contrast microscope, he made a major contribution to the "telescope" of medical researchers and biologists. |
NOTE: some special characters may not display properly (any characters within {} are an attempt to place the proper accent above a character) |
Reference: 20031110/MPCPages.arc | Last Updated: 2003-11-12 |
|
[ show close-approach data ]
|